Location: McCloud Nature Park
(39.8272°N, 86.6824°W)
Time: 12:36:33
(UTC-06:00)

Amateur Radio Satellites - All Passes

Search period start: 24 November 2017 12:06
Search period end: 25 November 2017 12:06
Location: McCloud Nature Park, 39.8272°N, 86.6824°W

Satellite Date Start Highest point End Downlink Frequencies (MHz)
Time Altitude Azimuth
AO-85 24 Nov 12:10:48 12:15:34 75° 240° (WSW) 12:20:39 145.980
Oscar 19 24 Nov 12:11:00 12:15:59 57° 72° (ENE) 12:21:01 437.125/150
POLYITAN 1 24 Nov 12:14:48 12:16:48 13° 269° (W) 12:18:48 437.675
BUGSAT 1 24 Nov 12:21:59 12:26:05 54° 259° (W) 12:30:11 437.445
NO-84 24 Nov 12:25:24 12:27:29 15° 122° (ESE) 12:29:40 435.350 FM
BEESAT 2 24 Nov 12:30:33 12:32:55 15° 250° (WSW) 12:35:15 435.950
50 SAT 24 Nov 12:37:26 12:39:23 15° 94° (E) 12:41:18 437.505
O/OREOS (USA 219) 24 Nov 12:45:33 12:50:05 57° 294° (WNW) 12:54:38 437.305
ESTCUBE 1 24 Nov 12:55:50 12:57:10 11° 298° (WNW) 12:58:28 437.505/2401.250
VELOX 1 24 Nov 12:57:19 13:01:42 58° 286° (WNW) 13:06:03 145.980
AO-7 24 Nov 13:00:45 13:07:43 31° 58° (ENE) 13:14:41 .
Gurwin Techsat 1B 24 Nov 13:05:19 13:10:34 63° 258° (WSW) 13:15:52 435.225
M-CUBED/EXP-1 PRIME 24 Nov 13:08:00 13:11:24 40° 67° (ENE) 13:15:06 437.505
SPROUT 24 Nov 13:27:26 13:30:10 17° 294° (WNW) 13:32:53 437.525
DX 1 24 Nov 13:30:56 13:35:19 71° 102° (ESE) 13:39:40 434.975-435.025
AO-91 24 Nov 13:40:16 13:44:28 23° 267° (W) 13:48:41 145.960
Oscar 19 24 Nov 13:52:33 13:55:39 16° 268° (W) 13:58:47 437.125/150
NO-84 24 Nov 14:00:49 14:04:20 54° 321° (NW) 14:08:10 435.350 FM
UKube-1 24 Nov 14:05:06 14:09:26 77° 285° (WNW) 14:13:44 .
50 SAT 24 Nov 14:08:49 14:11:25 23° 289° (WNW) 14:14:00 437.505
ITAMSAT 1 24 Nov 14:11:32 14:16:31 46° 70° (ENE) 14:21:31 435.822/435.867
MOZHAYETS 4 24 Nov 14:38:41 14:43:04 43° 99° (E) 14:47:25
M-CUBED/EXP-1 PRIME 24 Nov 14:44:19 14:46:05 13° 265° (W) 14:47:54 437.505
BEESAT 24 Nov 14:49:36 14:54:07 41° 99° (E) 14:58:34 436.000
AO-7 24 Nov 14:51:49 14:59:58 61° 256° (WSW) 15:08:11 .
DOVE 4 24 Nov 14:57:01 15:00:53 22° 65° (ENE) 15:04:51 437.250
YUBILEINY 24 Nov 15:00:26 15:08:16 34° 71° (ENE) 15:16:00 435.215
CUBESAT XI-V 24 Nov 15:01:09 15:04:18 18° 92° (E) 15:07:27 437.345
ITUPSAT 1 24 Nov 15:01:47 15:06:27 54° 101° (E) 15:11:06 437.325
DX 1 24 Nov 15:09:38 15:10:52 11° 299° (WNW) 15:12:07 434.975-435.025
RS-15 24 Nov 15:18:48 15:21:32 11° 93° (E) 15:24:17 29.354- 29.394
NO-84 24 Nov 15:40:22 15:42:28 14° 341° (NNW) 15:44:38 435.350 FM
ITAMSAT 1 24 Nov 15:52:18 15:56:10 21° 266° (W) 16:00:03 435.822/435.867
XW-2C 24 Nov 15:53:21 15:54:03 10° 64° (ENE) 15:54:44 145.795 - 145.815
LilacSat-2 24 Nov 15:58:53 16:00:47 14° 66° (ENE) 16:02:42 437.200
XW-2F 24 Nov 15:59:43 16:01:04 12° 65° (ENE) 16:02:23 145.980 - 146.000
KKS-1 24 Nov 16:04:09 16:06:58 16° 93° (E) 16:09:46 437.445
CUTE-I 24 Nov 16:11:47 16:15:55 23° 64° (ENE) 16:20:03 437.470
MOZHAYETS 4 24 Nov 16:16:46 16:19:53 18° 294° (WNW) 16:22:58
KAITUO 1B 24 Nov 16:19:49 16:22:04 16° 67° (ENE) 16:24:20 145.475/437.950
BEESAT 24 Nov 16:28:05 16:31:34 21° 295° (WNW) 16:35:03 436.000
DOVE 4 24 Nov 16:33:17 16:38:09 46° 262° (W) 16:43:14 437.250
CUBESAT XI-V 24 Nov 16:37:23 16:41:51 45° 288° (WNW) 16:46:19 437.345
HO-68 24 Nov 16:40:37 16:46:19 26° 60° (ENE) 16:52:01 435.675
ITUPSAT 1 24 Nov 16:40:54 16:43:49 16° 297° (WNW) 16:46:43 437.325
XW-2D 24 Nov 16:43:20 16:46:53 44° 74° (ENE) 16:50:28 145.860 - 145.880
NUDT-PHONESAT 24 Nov 16:56:14 16:59:40 41° 74° (ENE) 17:03:08 437.300
YUBILEINY 24 Nov 16:56:52 17:05:21 53° 271° (W) 17:13:47 435.215
XW-2B 24 Nov 16:58:09 17:01:50 67° 75° (ENE) 17:05:34 145.730 - 145.750
RS-15 24 Nov 17:19:24 17:31:19 61° 112° (ESE) 17:43:15 29.354- 29.394
CUTE 1.7 + AOD 2 24 Nov 17:19:30 17:23:03 27° 70° (ENE) 17:26:37 437.475
CUBEBUG 2 24 Nov 17:20:42 17:23:47 18° 67° (ENE) 17:26:48 437.445
XW-2C 24 Nov 17:24:05 17:27:43 52° 260° (W) 17:31:24 145.795 - 145.815
XW-2F 24 Nov 17:31:09 17:34:43 45° 261° (W) 17:38:19 145.980 - 146.000
LilacSat-2 24 Nov 17:31:10 17:34:41 39° 262° (W) 17:38:15 437.200
AAUSAT CUBESAT 2 24 Nov 17:39:18 17:40:48 12° 64° (ENE) 17:42:17 437.432
KKS-1 24 Nov 17:39:29 17:43:43 43° 288° (WNW) 17:47:54 437.445
SEEDS 24 Nov 17:42:11 17:45:48 29° 70° (ENE) 17:49:25 437.485
CUTE-I 24 Nov 17:50:29 17:55:36 46° 261° (W) 18:00:47 437.470
STARS 24 Nov 17:52:18 17:56:42 81° 285° (WNW) 18:01:03 437.465
KAITUO 1B 24 Nov 17:52:28 17:55:46 31° 263° (W) 17:59:07 145.475/437.950
ZACube-1 24 Nov 17:52:43 17:53:52 11° 64° (ENE) 17:55:00 437.345
UWE-3 24 Nov 18:08:16 18:12:11 32° 71° (ENE) 18:16:00 435.000/436.395/437.385
nSIGHT-1 24 Nov 18:19:47 18:22:35 28° 135° (SE) 18:25:24 .
XW-2D 24 Nov 18:20:12 18:21:17 11° 269° (W) 18:22:22 145.860 - 145.880
HO-68 24 Nov 18:26:24 18:33:30 62° 258° (WSW) 18:40:39 435.675
NUDT-PHONESAT 24 Nov 18:32:31 18:33:42 11° 269° (W) 18:34:54 437.300
FO-29 24 Nov 18:32:45 18:34:05 10° 82° (E) 18:35:24 435.910
AO-73 24 Nov 18:38:20 18:42:04 30° 71° (ENE) 18:45:45 145.935
XW-2A 24 Nov 18:50:10 18:53:29 86° 262° (W) 18:56:49 145.665 - 145.685
Oscar 11 24 Nov 18:50:17 18:53:56 28° 70° (ENE) 18:57:36 .
CUTE 1.7 + AOD 2 24 Nov 18:55:27 18:58:49 23° 265° (W) 19:02:13 437.475
CUBEBUG 2 24 Nov 18:55:47 19:00:05 41° 262° (W) 19:04:18 437.445
NO-84 24 Nov 18:57:20 19:00:10 17° 24° (NNE) 19:03:02 435.350 FM
STRAND 1 24 Nov 19:06:29 19:11:33 60° 101° (E) 19:16:34 437.568
AAUSAT CUBESAT 2 24 Nov 19:11:39 19:15:42 58° 260° (W) 19:19:49 437.432
ISS 24 Nov 19:16:12 19:19:29 90° 93° (E) 19:22:46 437.550
SEEDS 24 Nov 19:18:15 19:21:27 21° 266° (W) 19:24:41 437.485
ZACube-1 24 Nov 19:25:20 19:29:36 66° 259° (W) 19:33:49 437.345
SO-50 24 Nov 19:29:36 19:32:50 20° 111° (ESE) 19:36:07 436.795
RS-15 24 Nov 19:32:35 19:44:17 46° 316° (NW) 19:55:54 29.354- 29.394
UWE-3 24 Nov 19:45:16 19:48:38 21° 265° (W) 19:51:58 435.000/436.395/437.385
nSIGHT-1 24 Nov 19:55:50 19:58:46 31° 331° (NNW) 20:01:42 .
FO-29 24 Nov 20:12:45 20:20:32 67° 101° (E) 20:27:40 435.910
AO-73 24 Nov 20:15:04 20:18:18 21° 265° (W) 20:21:31 145.935
Oscar 11 24 Nov 20:26:34 20:30:01 24° 265° (W) 20:33:30 .
NO-84 24 Nov 20:33:54 20:38:08 71° 41° (NE) 20:42:23 435.350 FM
DELFI C3 24 Nov 20:39:25 20:43:24 82° 260° (W) 20:47:24 145.870
EO-88 24 Nov 20:43:25 20:46:54 49° 74° (ENE) 20:50:26 145.990 - 145.960
STRAND 1 24 Nov 20:47:03 20:50:12 17° 298° (WNW) 20:53:21 437.568
ISS 24 Nov 20:54:02 20:56:20 18° 340° (NNW) 20:58:39 437.550
Max Valier Satellite 24 Nov 20:54:30 20:58:09 76° 260° (W) 21:01:48 145.860
SO-50 24 Nov 21:08:44 21:12:59 42° 308° (NW) 21:17:16 436.795
O/OREOS (USA 219) 24 Nov 21:17:40 21:21:20 23° 59° (ENE) 21:24:57 437.305
PRISM 24 Nov 21:18:08 21:20:23 14° 92° (E) 21:22:39 437.425
UNISAT 6 24 Nov 21:32:45 21:37:01 71° 102° (ESE) 21:41:16 437.425
nSIGHT-1 24 Nov 21:34:34 21:35:46 12° 350° (N) 21:36:58 .
TIGRISAT 24 Nov 21:35:57 21:40:12 69° 101° (E) 21:44:25 435.000
RS-15 24 Nov 21:52:19 22:01:05 21° 348° (NNW) 22:09:41 29.354- 29.394
FO-29 24 Nov 21:58:39 22:04:49 27° 300° (WNW) 22:10:41 435.910
NO-84 24 Nov 22:12:31 22:15:03 16° 237° (WSW) 22:17:34 435.350 FM
ESTCUBE 1 24 Nov 22:14:51 22:19:16 61° 74° (ENE) 22:23:42 437.505/2401.250
VELOX 1 24 Nov 22:20:35 22:21:47 11° 61° (ENE) 22:23:00 145.980
LO-87 24 Nov 22:27:47 22:31:20 60° 259° (WSW) 22:34:55 145.935 - 145.965
ISS 24 Nov 22:33:07 22:33:51 11° 0° (N) 22:34:36 437.550
SPROUT 24 Nov 22:43:03 22:46:42 28° 70° (ENE) 22:50:23 437.525
AIST 2D 24 Nov 22:46:21 22:49:48 49° 99° (E) 22:53:14 435.315
QB50P2 24 Nov 22:46:35 22:49:25 17° 93° (E) 22:52:14 145.880/145.840
PRISM 24 Nov 22:51:54 22:55:52 43° 288° (WNW) 22:59:47 437.425
PCSat 24 Nov 22:52:03 22:57:23 65° 115° (ESE) 23:02:47 145.827
O/OREOS (USA 219) 24 Nov 22:56:42 23:00:47 33° 256° (WSW) 23:04:47 437.305
nSIGHT-1 24 Nov 23:11:49 23:13:08 12° 11° (N) 23:14:26 .
UNISAT 6 24 Nov 23:12:30 23:13:07 10° 298° (WNW) 23:13:45 437.425
TIGRISAT 24 Nov 23:15:34 23:16:17 10° 298° (WNW) 23:17:01 435.000
DUCHIFAT 1 24 Nov 23:28:32 23:32:23 35° 98° (E) 23:36:12 145.980
EO-79 24 Nov 23:40:58 23:45:09 68° 102° (ESE) 23:49:18 145.935-145.965
NANOSAT C BR1 24 Nov 23:41:21 23:45:30 59° 101° (E) 23:49:35 145.865
VELOX 1 24 Nov 23:53:09 23:57:35 74° 258° (WSW) 00:02:03 145.980
ESTCUBE 1 24 Nov 23:54:48 23:56:27 12° 270° (W) 23:58:05 437.505/2401.250
POLYITAN 1 24 Nov 23:57:29 00:01:40 78° 284° (WNW) 00:05:51 437.675
BUGSAT 1 25 Nov 00:04:57 00:07:59 20° 95° (E) 00:11:00 437.445
ISS 25 Nov 00:09:01 00:11:22 18° 21° (NNE) 00:13:43 437.550
RS-15 25 Nov 00:09:57 00:19:31 26° 24° (NNE) 00:28:41 29.354- 29.394
SPROUT 25 Nov 00:19:06 00:22:33 23° 265° (W) 00:26:00 437.525
QB50P2 25 Nov 00:21:27 00:25:18 36° 289° (WNW) 00:29:09 145.880/145.840
Oscar 19 25 Nov 00:23:59 00:27:51 21° 94° (E) 00:31:43 437.125/150
DX 1 25 Nov 00:25:17 00:29:33 55° 73° (ENE) 00:33:51 434.975-435.025
50 SAT 25 Nov 00:33:50 00:37:03 79° 77° (ENE) 00:40:18 437.505
PCSat 25 Nov 00:37:18 00:41:15 20° 314° (NW) 00:45:14 145.827
nSIGHT-1 25 Nov 00:47:08 00:50:06 34° 30° (NNE) 00:53:03 .
BEESAT 3 25 Nov 00:57:06 01:00:55 47° 117° (ESE) 01:04:46 437.485
UKube-1 25 Nov 00:58:14 01:02:33 80° 74° (ENE) 01:06:53 .
DUCHIFAT 1 25 Nov 01:04:54 01:07:46 18° 293° (WNW) 01:10:37 145.980
NANOSAT C BR1 25 Nov 01:19:08 01:20:40 12° 297° (WNW) 01:22:11 145.865
EO-79 25 Nov 01:19:27 01:20:18 11° 298° (WNW) 01:21:10 145.935-145.965
Gurwin Techsat 1B 25 Nov 01:22:14 01:27:27 54° 100° (E) 01:32:39 435.225
AO-91 25 Nov 01:30:44 01:35:09 82° 283° (WNW) 01:39:03 145.960
MOZHAYETS 4 25 Nov 01:39:40 01:43:53 38° 71° (ENE) 01:48:05
BUGSAT 1 25 Nov 01:39:53 01:43:20 28° 290° (WNW) 01:46:45 437.445
ISS 25 Nov 01:44:55 01:48:12 84° 219° (SW) 01:51:26 437.550
BEESAT 25 Nov 01:55:01 01:59:32 44° 71° (ENE) 02:04:03 436.000
Oscar 19 25 Nov 02:02:27 02:07:20 45° 290° (WNW) 02:12:15 437.125/150
DX 1 25 Nov 02:04:06 02:06:02 13° 269° (W) 02:07:59 434.975-435.025
CUBESAT XI-V 25 Nov 02:04:11 02:07:02 16° 64° (ENE) 02:09:54 437.345
ITUPSAT 1 25 Nov 02:07:30 02:12:10 58° 73° (ENE) 02:16:53 437.325
BEESAT 2 25 Nov 02:18:46 02:22:46 77° 302° (WNW) 02:26:50 435.950
M-CUBED/EXP-1 PRIME 25 Nov 02:20:13 02:24:33 39° 103° (ESE) 02:28:52 437.505
RS-15 25 Nov 02:22:58 02:34:50 68° 53° (NE) 02:46:00 29.354- 29.394
nSIGHT-1 25 Nov 02:23:33 02:26:13 24° 226° (SW) 02:28:51 .
AO-85 25 Nov 02:25:10 02:28:45 38° 116° (ESE) 02:32:30 145.980
ITAMSAT 1 25 Nov 02:26:16 02:29:34 17° 92° (E) 02:32:51 435.822/435.867
BEESAT 3 25 Nov 02:35:59 02:38:41 17° 314° (NW) 02:41:25 437.485
AO-7 25 Nov 02:54:05 03:02:08 49° 101° (ESE) 03:10:08 .
KKS-1 25 Nov 03:01:54 03:04:28 15° 64° (ENE) 03:07:03 437.445
Gurwin Techsat 1B 25 Nov 03:03:15 03:06:57 20° 297° (WNW) 03:10:39 435.225
MOZHAYETS 4 25 Nov 03:17:50 03:21:08 19° 267° (W) 03:24:26
BEESAT 25 Nov 03:34:11 03:37:29 18° 267° (W) 03:40:47 436.000
CUBESAT XI-V 25 Nov 03:39:31 03:43:58 50° 261° (W) 03:48:28 437.345
ITUPSAT 1 25 Nov 03:47:52 03:50:20 14° 268° (W) 03:52:49 437.325
M-CUBED/EXP-1 PRIME 25 Nov 03:55:02 03:58:38 23° 298° (WNW) 04:02:16 437.505
YUBILEINY 25 Nov 04:00:30 04:08:21 39° 86° (E) 04:16:15 435.215
SO-50 25 Nov 04:00:38 04:03:56 19° 44° (NE) 04:07:17 436.795
ITAMSAT 1 25 Nov 04:04:16 04:09:22 56° 288° (WNW) 04:14:24 435.822/435.867
AO-85 25 Nov 04:06:27 04:09:18 19° 315° (NW) 04:12:17 145.980
DOVE 4 25 Nov 04:33:00 04:38:01 55° 99° (E) 04:42:42 437.250
KKS-1 25 Nov 04:36:11 04:40:34 52° 260° (W) 04:44:57 437.445
RS-15 25 Nov 04:36:26 04:46:21 34° 256° (WSW) 04:55:52 29.354- 29.394
AO-7 25 Nov 04:47:10 04:54:39 39° 300° (WNW) 05:02:09 .
STARS 25 Nov 04:47:32 04:51:58 81° 76° (ENE) 04:56:25 437.465
XW-2C 25 Nov 04:58:02 05:00:26 16° 93° (E) 05:02:51 145.795 - 145.815
XW-2F 25 Nov 05:04:19 05:06:56 18° 94° (E) 05:09:32 145.980 - 146.000
LilacSat-2 25 Nov 05:05:10 05:08:10 21° 95° (E) 05:11:09 437.200
KAITUO 1B 25 Nov 05:23:58 05:27:02 23° 95° (E) 05:30:06 145.475/437.950
SO-50 25 Nov 05:40:10 05:44:46 60° 242° (WSW) 05:49:24 436.795
XW-2D 25 Nov 05:50:01 05:53:50 77° 100° (E) 05:57:40 145.860 - 145.880
HO-68 25 Nov 05:55:31 06:01:28 27° 95° (E) 06:07:21 435.675
YUBILEINY 25 Nov 05:56:42 06:04:58 45° 285° (WNW) 06:13:20 435.215
NUDT-PHONESAT 25 Nov 06:00:09 06:03:51 65° 100° (E) 06:07:33 437.300
XW-2B 25 Nov 06:05:02 06:08:51 72° 285° (WNW) 06:12:39 145.730 - 145.750
CUTE-I 25 Nov 06:07:56 06:13:19 76° 103° (ESE) 06:18:38 437.470
DOVE 4 25 Nov 06:11:52 06:15:07 17° 297° (WNW) 06:18:18 437.250
STRAND 1 25 Nov 06:21:23 06:26:32 79° 75° (ENE) 06:31:42 437.568
FO-29 25 Nov 06:23:50 06:29:37 29° 61° (ENE) 06:35:52 435.910
XW-2C 25 Nov 06:31:15 06:34:41 32° 288° (WNW) 06:38:07 145.795 - 145.815
XW-2F 25 Nov 06:37:44 06:41:03 29° 289° (WNW) 06:44:22 145.980 - 146.000
LilacSat-2 25 Nov 06:39:11 06:42:22 25° 290° (WNW) 06:45:33 437.200
CUTE 1.7 + AOD 2 25 Nov 06:39:46 06:44:01 61° 101° (E) 06:48:15 437.475
CUBEBUG 2 25 Nov 06:47:04 06:50:58 39° 98° (E) 06:54:52 437.445
AAUSAT CUBESAT 2 25 Nov 06:54:46 06:58:04 22° 94° (E) 07:01:20 437.432
KAITUO 1B 25 Nov 06:57:57 07:00:54 22° 290° (WNW) 07:03:51 145.475/437.950
SEEDS 25 Nov 07:01:17 07:05:31 64° 101° (E) 07:09:44 437.485
ZACube-1 25 Nov 07:14:34 07:17:55 23° 95° (E) 07:21:17 437.345
UWE-3 25 Nov 07:34:04 07:38:13 79° 102° (ESE) 07:42:24 435.000/436.395/437.385
PCSat 25 Nov 07:40:42 07:45:54 44° 56° (NE) 07:51:03 145.827
HO-68 25 Nov 07:42:31 07:49:29 55° 292° (WNW) 07:56:25 435.675
XW-2A 25 Nov 07:44:37 07:48:00 72° 283° (WNW) 07:51:22 145.665 - 145.685
CUTE-I 25 Nov 07:49:51 07:52:40 15° 300° (WNW) 07:55:29 437.470
FALCONSAT 3 25 Nov 07:50:56 07:54:06 28° 165° (SSE) 07:57:18 435.103
AO-73 25 Nov 08:02:05 08:06:14 74° 102° (ESE) 08:10:27 145.935
STRAND 1 25 Nov 08:04:40 08:06:16 11° 271° (W) 08:07:50 437.568
FO-29 25 Nov 08:07:28 08:14:05 57° 261° (W) 08:21:30 435.910
Oscar 11 25 Nov 08:13:15 08:17:34 65° 100° (E) 08:21:52 .
CUTE 1.7 + AOD 2 25 Nov 08:17:37 08:19:18 12° 296° (WNW) 08:20:59 437.475
DELFI C3 25 Nov 08:18:28 08:20:22 13° 91° (E) 08:22:16 145.870
CUBEBUG 2 25 Nov 08:24:42 08:27:16 16° 294° (WNW) 08:29:49 437.445
AAUSAT CUBESAT 2 25 Nov 08:29:52 08:33:29 29° 290° (WNW) 08:37:05 437.432
UNISAT 6 25 Nov 08:30:17 08:34:42 55° 74° (ENE) 08:39:03 437.425
TIGRISAT 25 Nov 08:33:20 08:37:45 54° 74° (ENE) 08:42:06 435.000
SEEDS 25 Nov 08:39:16 08:40:38 11° 297° (WNW) 08:42:00 437.485
ZACube-1 25 Nov 08:50:39 08:54:09 27° 290° (WNW) 08:57:41 437.345
BEESAT 3 25 Nov 09:14:37 09:17:48 23° 48° (NE) 09:20:56 437.485
AIST 2D 25 Nov 09:20:38 09:22:48 16° 68° (ENE) 09:24:58 435.315
PCSat 25 Nov 09:24:39 09:29:00 25° 253° (WSW) 09:33:19 145.827
FALCONSAT 3 25 Nov 09:29:20 09:32:50 42° 180° (S) 09:36:20 435.103
HO-68 25 Nov 09:35:10 09:35:38 10° 311° (NW) 09:36:06 435.675
QB50P2 25 Nov 09:39:24 09:41:21 13° 64° (ENE) 09:43:16 145.880/145.840
PRISM 25 Nov 09:39:33 09:43:40 72° 258° (WSW) 09:47:50 437.425
EO-88 25 Nov 09:45:45 09:49:25 75° 101° (ESE) 09:53:04 145.990 - 145.960
DELFI C3 25 Nov 09:51:31 09:55:19 43° 287° (WNW) 09:59:05 145.870
Oscar 11 25 Nov 09:51:36 09:53:08 12° 297° (WNW) 09:54:41 .
LO-87 25 Nov 09:57:53 09:58:12 10° 91° (E) 09:58:30 145.935 - 145.965
Max Valier Satellite 25 Nov 09:58:33 10:02:06 48° 285° (WNW) 10:05:39 145.860
ESTCUBE 1 25 Nov 10:09:32 10:11:51 14° 91° (E) 10:14:09 437.505/2401.250
UNISAT 6 25 Nov 10:09:35 10:11:42 13° 269° (W) 10:13:48 437.425
TIGRISAT 25 Nov 10:12:31 10:14:42 13° 269° (W) 10:16:52 435.000
DUCHIFAT 1 25 Nov 10:19:37 10:23:00 24° 69° (ENE) 10:26:24 145.980
EO-79 25 Nov 10:32:13 10:36:14 44° 73° (ENE) 10:40:15 145.935-145.965
NANOSAT C BR1 25 Nov 10:32:20 10:36:15 38° 72° (ENE) 10:40:10 145.865
BEESAT 2 25 Nov 10:36:59 10:40:53 46° 54° (NE) 10:44:42 435.950
POLYITAN 1 25 Nov 10:48:41 10:52:52 69° 76° (ENE) 10:57:05 437.675
BEESAT 3 25 Nov 10:51:52 10:55:20 31° 246° (WSW) 10:58:46 437.485
AIST 2D 25 Nov 10:52:46 10:55:43 27° 264° (W) 10:58:44 435.315
AO-91 25 Nov 10:53:58 10:54:40 10° 60° (ENE) 10:55:22 145.960
BUGSAT 1 25 Nov 10:54:35 10:56:53 15° 65° (ENE) 10:59:10 437.445
AO-85 25 Nov 10:55:50 11:00:07 33° 51° (NE) 11:04:40 145.980
Gurwin Techsat 1B 25 Nov 11:07:39 11:08:43 11° 58° (ENE) 11:09:46 435.225
FALCONSAT 3 25 Nov 11:08:22 11:11:35 28° 195° (SSW) 11:14:47 435.103
QB50P2 25 Nov 11:12:29 11:16:38 55° 260° (W) 11:20:48 145.880/145.840
LO-87 25 Nov 11:28:27 11:31:49 42° 286° (WNW) 11:35:09 145.935 - 145.965
O/OREOS (USA 219) 25 Nov 11:28:57 11:32:56 30° 103° (ESE) 11:36:56 437.305
Oscar 19 25 Nov 11:40:00 11:44:21 29° 67° (ENE) 11:48:43 437.125/150
VELOX 1 25 Nov 11:44:27 11:47:53 22° 94° (E) 11:51:18 145.980
ESTCUBE 1 25 Nov 11:44:30 11:48:56 54° 287° (WNW) 11:53:22 437.505/2401.250
NO-84 25 Nov 11:51:06 11:51:43 10° 120° (ESE) 11:52:20 435.350 FM
DUCHIFAT 1 25 Nov 11:54:59 11:58:32 26° 264° (W) 12:02:07 145.980
